• Join FlightAware (Why Join?)
  • Login
  • US Flag GB Flag 
06:14 EST


 

Airport Tracker/Info


-or-


 

Live Flight TrackerFlight Track Log ✈ GGN7280 ✈ 17-May-2013 ✈ CYYZ - KALB

Flight Track Log - Related Links

Times and Time Zones

All times are in EDT time to prevent confusion due to time zone crossing. See the GGN7280 flight status page for this flight to view local times or setup timezone preferences in your user account.

Time Position Orientation Groundspeed Altitude Reporting Facility
EDT Latitude Longitude Course Direction KTS MPH feet Rate Location/Type
10:12 43.6667 -79.5833 90° East 50 58 800  Level Toronto Center
10:13 43.6667 -79.5333 90° East 150 173 2,200 1,200 Climbing Toronto Center
10:14 43.6500 -79.4667 109° East 190 219 3,300 840 Climbing Toronto Center
10:15 43.6333 -79.4000 109° East 210 242 3,900 780 Climbing Toronto Center
10:16 43.6000 -79.3167 119° Southeast 220 253 4,900 960 Climbing Toronto Center
10:17 43.5667 -79.2500 125° Southeast 220 253 5,900 1,080 Climbing Toronto Center
10:18 43.5333 -79.1667 119° Southeast 220 253 7,100 1,020 Climbing Toronto Center
10:19 43.5000 -79.1000 125° Southeast 230 265 8,000 900 Climbing Toronto Center
10:20 43.4667 -79.0167 119° Southeast 240 276 9,000 480 Climbing Toronto Center
10:21 43.4333 -78.9167 115° Southeast 260 299 9,000  Level Toronto Center
10:22 43.4167 -78.8333 105° East 270 311 9,000  Level Toronto Center
10:23 43.4000 -78.7333 103° East 270 311 9,000  Level Toronto Center
10:24 43.4000 -78.6167 90° East 270 311 9,000 -60 Level Toronto Center
10:24 43.3872 -78.5922 126° Southeast 272 313 8,900 -120 Descending Cleveland Center
10:25 43.3842 -78.5467 95° East 271 312 8,900  Level Cleveland Center
10:26 43.3719 -78.4442 99° East 271 312 8,900  Level Cleveland Center
10:27 43.3575 -78.3333 100° East 271 312 8,900  Level Cleveland Center
10:28 43.3467 -78.2167 97° East 270 311 8,900  Level Cleveland Center
10:29 43.3319 -78.1089 101° East 270 311 8,900  Level Cleveland Center
10:30 43.3211 -77.9922 97° East 270 311 8,900  Level Cleveland Center
10:31 43.3083 -77.8900 100° East 272 313 8,900  Level Cleveland Center
10:32 43.2953 -77.7822 99° East 272 313 8,900  Level Cleveland Center
10:33 43.2828 -77.6914 101° East 272 313 8,900  Level Cleveland Center
10:34 43.2697 -77.5867 100° East 275 316 8,900  Level Cleveland Center
10:35 43.2586 -77.4844 98° East 279 321 8,900  Level Cleveland Center
10:36 43.2453 -77.3797 100° East 278 320 8,900  Level Cleveland Center
10:37 43.2319 -77.2719 100° East 278 320 8,900  Level Cleveland Center
10:38 43.2206 -77.1672 98° East 278 320 8,900  Level Cleveland Center
10:40 43.1967 -76.9581 99° East 278 320 8,900  Level Boston Center
10:41 43.1833 -76.8833 104° East 280 322 8,900  Level Toronto Center
10:42 43.1667 -76.7833 103° East 280 322 8,900  Level Toronto Center
10:43 43.1500 -76.6667 101° East 280 322 9,000  Climbing Toronto Center
10:44 43.1333 -76.5667 103° East 280 322 8,900 -60 Descending Toronto Center
10:45 43.1267 -76.4319 94° East 276 318 8,900  Level Boston Center
10:46 43.1114 -76.3283 101° East 277 319 8,900  Level Boston Center
10:47 43.0983 -76.2253 100° East 275 316 9,000  Climbing Boston Center
10:48 43.0850 -76.1192 100° East 271 312 9,000 -60 Level Boston Center
10:49 43.0694 -76.0186 102° East 267 307 8,900 -60 Descending Boston Center
10:50 43.0578 -75.9269 100° East 269 310 8,900  Level Boston Center
10:51 43.0442 -75.8267 100° East 270 311 8,900  Level Boston Center
10:52 43.0325 -75.7239 99° East 274 315 8,900  Level Boston Center
10:53 43.0147 -75.6178 103° East 274 315 8,900  Level Boston Center
10:54 43.0028 -75.5236 100° East 273 314 8,900  Level Boston Center
10:55 42.9872 -75.4036 100° East 275 316 9,000  Climbing Boston Center
10:56 42.9708 -75.3006 102° East 275 316 8,900 -60 Descending Boston Center
10:58 42.9553 -75.1750 100° East 274 315 8,900  Level Boston Center
10:59 42.9369 -75.0750 104° East 275 316 8,900  Level Boston Center
11:00 42.9206 -74.9608 101° East 276 318 9,000  Climbing Boston Center
11:01 42.9042 -74.8581 102° East 274 315 8,900 -60 Descending Boston Center
11:02 42.8917 -74.7556 99° East 271 312 8,900  Level Boston Center
11:03 42.8878 -74.6306 92° East 272 313 9,000  Climbing Boston Center
11:04 42.8917 -74.5317 87° East 265 305 9,000 -360 Level Boston Center
11:05 42.8561 -74.4369 117° Southeast 296 341 8,300 -900 Descending Boston Center
11:06 42.8158 -74.3536 123° Southeast 290 334 7,300 -1,080 Descending Boston Center
11:07 42.7756 -74.2703 123° Southeast 260 299 6,300 -1,140 Descending Boston Center
11:08 42.7328 -74.1925 127° Southeast 238 274 5,000 -1,260 Descending Boston Center
11:09 42.7133 -74.1128 108° East 220 253 3,800 -900 Descending Boston Center
11:10 42.6978 -74.0306 104° East 227 261 3,300 -480 Descending Boston Center
11:11 42.6803 -73.9425 105° East 241 277 2,900 -540 Descending Boston Center
11:12 42.6689 -73.8575 100° East 213 245 2,300 -600 Descending Boston Center